Regional Weather Roundup
Issued by NWS

Home | Current Version | Previous Version | Graphics & Text | Print | Product List | Glossary On
Versions: 1 2 3 4 5 6 7 8 9 10 11 12 13 14 15 16 17 18 19 20 21 22 23 24 25 26 27 28 29 30 31 32 33 34 35 36 37 38 39 40 41 42 43 44 45 46 47 48 49 50
000
ASUS43 KIND 191309
RWRIN

WEATHER ROUNDUP FOR INDIANA
NATIONAL WEATHER SERVICE INDIANAPOLIS IN
800 AM EST MON FEB 19 2018

NOTE: "FAIR" INDICATES FEW OR NO CLOUDS BELOW 12,000 FEET WITH NO
SIGNIFICANT WEATHER AND/OR OBSTRUCTIONS TO VISIBILITY.

* - STATION DOES NOT REPORT WEATHER SUCH AS PRECIPITATION OR FOG.

+ - STATION NOT QUALITY CONTROLLED BY THE NATIONAL WEATHER SERVICE.
    USE DATA WITH CAUTION...ESPECIALLY DEWPOINT AND RELATIVE
    HUMIDITY OBSERVATIONS.

INZ001>003-010>013-019-020-191400-
NORTHWEST INDIANA

CITY           SKY/WX    TMP DP  RH WIND       PRES   REMARKS
GARY /AIRPORT/ CLOUDY    41  41 100 SE3       29.90F
LA PORTE +     SNOW      37  36  99 CALM      29.92F VSB<1/4
MICHIGAN CITY+ DRIZZLE   41  41 100 SW8       29.92F
MONTICELLO +   RAIN      47  46  96 S5        29.92F
RENSSELAER +   CLOUDY    43  41  93 S3        29.92F FOG
VALPARAISO     LGT RAIN  41  40  96 S7        29.92F FOG

$$

LMZ046-743>745-191400-
SOUTHERN LAKE MICHIGAN

STATION/POSITION TIME  TEMP    WIND        PRES    WAVE
                       AIR SEA DIR/SP/G            HT
                 (UTC) (F)     (DEG/KT/KT) (MB)    (FT)
BURNS HARBOR     1240   41     180/ 12/ 15 1013.2F
MICHIGAN CITY    1240   41     160/ 13/ 17   N/A

$$

INZ004-005-014>016-021>024-191400-
NORTH CENTRAL INDIANA

CITY           SKY/WX    TMP DP  RH WIND       PRES   REMARKS
ELKHART        DRZL/FOG  37  37 100 CALM      29.93F VSB 1
GOSHEN         LGT RAIN  40  39  97 S9        29.95R FOG     WCI  34
LOGANSPORT +   LGT RAIN  45  45 100 SW7       29.96S
PERU/GRISSOM   LGT RAIN  47  47 100 S10       29.95S
ROCHESTER +    CLOUDY    45  45 100 S6        29.95S FOG
SOUTH BEND     LGT RAIN  38  37  97 S6        29.91F VSB 3/4 WCI  33
WARSAW +       RAIN      41  41 100 S3        29.95F

$$

INZ006>009-017-018-025>027-191400-
NORTHEAST INDIANA

CITY           SKY/WX    TMP DP  RH WIND       PRES   REMARKS
AUBURN +       CLOUDY    37  37 100 CALM      29.99R FOG
FORT WAYNE     CLOUDY    45  44  97 SW9       29.98R FOG
HUNTINGTON +   LGT RAIN  44  43  96 S5        29.97S
KENDALLVILLE + CLOUDY    39  39 100 S6        29.96R FOG     WCI  35

$$

INZ028-029-035-036-043>045-051>053-191400-
WEST CENTRAL INDIANA

CITY           SKY/WX    TMP DP  RH WIND       PRES   REMARKS
CRAWFORDSVL +  CLOUDY    45  45 100 SE7       29.93F FOG
GREENCASTLE +  LGT RAIN  54  54 100 S7        29.95F
LAFAYETTE      HVY RAIN  49  49 100 VRB7      29.92F FOG
TERRE HAUTE    RAIN      55  54  96 S17G24    29.94F FOG

$$

INZ030>032-037>040-046>048-054>057-064-065-191400-
CENTRAL INDIANA

CITY           SKY/WX    TMP DP  RH WIND       PRES   REMARKS
COLUMBUS       CLOUDY    54  50  87 S13       30.02R
FISHERS *+     CLOUDY    45  45 100 SE3       29.98F
FRANKFORT +    HVY RAIN  51  50  96 SW9       29.96F
GREENWOOD *+   CLOUDY   N/A N/A N/A SE3       29.99F
INDIANAPOLIS   DRIZZLE   50  49  96 SE7       29.98F FOG
-EAGLE CREEK   LGT RAIN  50  48  93 SE3       29.97F FOG
KOKOMO +       LGT RAIN  48  47  96 S10       29.97S
MARION +       LGT RAIN  45  44  99 S10       29.98F
MT COMFORT *+  CLOUDY    46  46 100 S7        29.99F
SHELBYVILLE    CLOUDY    53  49  86 S13       29.99S
ZIONSVILLE +   LGT RAIN  45  45 100 SE3       29.98F

$$

INZ033-034-041-042-049-050-058-059-191400-
EAST CENTRAL INDIANA

CITY           SKY/WX    TMP DP  RH WIND       PRES   REMARKS
MUNCIE         LGT RAIN  50  48  93 SW6       30.00S
RICHMOND +     CLOUDY    45  45 100 S13       30.03R

$$

INZ060-061-067>069-081>083-085>088-191400-
SOUTHWEST INDIANA

CITY           SKY/WX    TMP DP  RH WIND       PRES   REMARKS
EVANSVILLE     CLOUDY    59  57  93 S16G25    30.03S
HUNTINGBURG +  CLOUDY    59  55  87 S20       30.04R
WASHINGTON +   CLOUDY    56  55  94 S15       29.99S

$$

INZ062-063-066-070>080-084-089>092-191400-
SOUTH CENTRAL AND SOUTHEAST INDIANA

CITY           SKY/WX    TMP DP  RH WIND       PRES   REMARKS
BATESVILLE +   CLOUDY    55  55 100 MISG      30.03R
BEDFORD +      RAIN      59  54  82 S13G21    30.01S
BLOOMINGTON    RAIN      59  56  89 SW21G30   29.98S
FRENCH LICK *+ CLOUDY    59 N/A N/A SW12G23   30.04S
MADISON *+     CLOUDY    57  54  88 S10       30.08S
NORTH VERNON + CLOUDY    54  52  94 S14       30.04
SEYMOUR +      DRIZZLE   57  52  82 S9        30.04R

$$





USA.gov is the U.S. government's official web portal to all federal, state and local government web resources and services.